This is the latest recevied weather packets stored in our database for station/object KC9EGS. If no packets are shown the sender has not sent any weather packets the latest 1 day(s).
| Time | Temp. | Humidity | Pressure | Rain* | Wind** | Luminosity | Snow |
|---|---|---|---|---|---|---|---|
| 1778001323 | 5.56° C | 43% | 1003.5 hPa | 0 mm | 0 m/s | - | - |
| 1778000723 | 5.56° C | 44% | 1003.5 hPa | 0 mm | 1.34 m/s, 241° | - | - |
| 1778000505 | 5.56° C | 45% | 1003.5 hPa | 0 mm | 2.24 m/s, 253° | - | - |
| 1778000118 | 5.56° C | 46% | 1003.4 hPa | 0 mm | 4.92 m/s, 272° | - | - |
| 1777999522 | 5.56° C | 45% | 1003.4 hPa | 0 mm | 1.34 m/s, 243° | - | - |
| 1777999217 | 5.56° C | 46% | 1003.3 hPa | 0 mm | 0 m/s | - | - |
| 1777998923 | 5.56° C | 46% | 1003.3 hPa | 0 mm | 1.34 m/s, 270° | - | - |
| 1777998325 | 5.56° C | 48% | 1003.1 hPa | 0 mm | 3.13 m/s, 244° | - | - |
| 1777997723 | 5° C | 47% | 1003.1 hPa | 0 mm | 4.92 m/s, 222° | - | - |
| 1777997418 | 5° C | 46% | 1003.1 hPa | 0 mm | 1.34 m/s, 251° | - | - |
| 1777997123 | 5.56° C | 46% | 1003.1 hPa | 0 mm | 2.68 m/s, 246° | - | - |
| 1777996519 | 5.56° C | 47% | 1002.9 hPa | 0 mm | 2.24 m/s, 251° | - | - |
| 1777995925 | 5° C | 51% | 1002.9 hPa | 0 mm | 0 m/s | - | - |
| 1777995617 | 5° C | 53% | 1002.9 hPa | 0 mm | 1.34 m/s, 247° | - | - |
| 1777995323 | 5° C | 52% | 1002.9 hPa | 0 mm | 2.24 m/s, 247° | - | - |
| 1777994718 | 5° C | 55% | 1002.9 hPa | 0 mm | 0.89 m/s, 234° | - | - |
| 1777994122 | 5.56° C | 52% | 1002.9 hPa | 0 mm | 4.92 m/s, 237° | - | - |
| 1777993817 | 5.56° C | 50% | 1002.8 hPa | 0 mm | 4.47 m/s, 260° | - | - |
| 1777993523 | 5° C | 50% | 1002.8 hPa | 0 mm | 3.58 m/s, 254° | - | - |
| 1777992917 | 4.44° C | 53% | 1002.8 hPa | 0 mm | 2.68 m/s, 241° | - | - |
| 1777992323 | 4.44° C | 55% | 1002.8 hPa | 0 mm | 3.13 m/s, 270° | - | - |
| 1777992018 | 3.89° C | 56% | 1002.7 hPa | 0 mm | 0 m/s | - | - |
| 1777991724 | 3.89° C | 56% | 1002.7 hPa | 0 mm | 2.68 m/s, 251° | - | - |
| 1777991116 | 3.89° C | 58% | 1002.7 hPa | 0 mm | 2.24 m/s, 248° | - | - |
| 1777990522 | 3.89° C | 58% | 1002.7 hPa | 0 mm | 1.34 m/s, 241° | - | - |
* Rain latest hour (hover to see other rain measurements)
** Current wind speed in m/s (hover to see current wind gust speed)